Regional Weather Roundup
Issued by NWS

Home | Current Version | Previous Version | Graphics & Text | Print | Product List | Glossary On
Versions: 1 2 3 4 5 6 7 8 9 10 11 12 13 14 15 16 17 18 19 20 21 22 23 24 25 26 27 28 29 30 31 32 33 34 35 36 37 38 39 40 41 42 43 44 45 46 47 48 49 50
000
ASUS43 KBIS 190110
RWRND

NORTH DAKOTA REGIONAL WEATHER ROUNDUP
NATIONAL WEATHER SERVICE BISMARCK ND
700 PM CST WED JAN 18 2017

NOTE: "FAIR" INDICATES FEW OR NO CLOUDS BELOW 12,000 FEET WITH NO
SIGNIFICANT WEATHER AND/OR OBSTRUCTIONS TO VISIBILITY.


NDZ001>003-009>011-017-190200-
NORTHWEST NORTH DAKOTA

CITY           SKY/WX    TMP DP  RH WIND       PRES   REMARKS
WILLISTON      FAIR      33  26  75 CALM      29.56F
MINOT          FAIR      39  28  64 S15       29.55S
$$

NDZ018>021-031>035-040>046-190200-
SOUTHWEST NORTH DAKOTA

CITY           SKY/WX    TMP DP  RH WIND       PRES   REMARKS
BISMARCK       FAIR      27  22  81 CALM      29.65F
DICKINSON      FAIR      35  26  69 S14       29.58F
GARRISON         N/A     29  24  82 CALM      29.59S
HETTINGER ARPT CLOUDY    25  19  78 NW10      29.64S WCI  15
$$

NDZ004>008-012>016-024-026-027-054-190200-
NORTHEAST NORTH DAKOTA

CITY           SKY/WX    TMP DP  RH WIND       PRES   REMARKS
GRAND FORKS    CLOUDY    29  22  75 S12       29.67S WCI  19
GRND FRKS AFB  CLOUDY    27  23  84 S8        29.66F WCI  19
DEVILS LAKE    FAIR      28  25  88 SE6       29.61F
$$

NDZ022-023-025-028>030-036>039-047>053-190200-
SOUTHEAST NORTH DAKOTA

CITY           SKY/WX    TMP DP  RH WIND       PRES   REMARKS
FARGO          CLEAR     34  27  75 S12       29.71F
JAMESTOWN      FAIR      27  25  92 S6        29.65S
$$





USA.gov is the U.S. government's official web portal to all federal, state and local government web resources and services.